DD5ASA Weather Reports


Display with metric or nautical units.
time (UTC)temp
F
wind
direction
speed
MPH
gust
MPH
rain 1hr
in
rain 24hr
in
rain mn
in
humidity
%
barometer
mb
20260506062023 56 237 2.0 3.0 0.00 0.34 0.29 81 1006.8
20260506060538 56 210 2.0 2.0 0.00 0.34 0.29 82 1006.8
20260506050517 54 221 1.0 2.0 0.00 0.34 0.29 84 1006.8
20260506044557 54 66 0.0 2.0 0.00 0.34 0.29 82 1005.8
20260506043047 53 181 2.0 2.0 0.00 0.34 0.29 80 1006.8
20260506042059 53 157 1.0 2.0 0.00 0.34 0.29 79 1005.8
20260506041027 53 129 1.0 2.0 0.00 0.34 0.29 79 1005.8
20260506040045 53 291 1.0 3.0 0.00 0.34 0.29 78 1005.8
20260506035018 53 115 0.0 2.0 0.00 0.34 0.29 79 1005.8
20260506034037 53 90 0.0 2.0 0.00 0.34 0.29 80 1005.8
20260506033043 53 194 1.0 2.0 0.00 0.34 0.29 81 1005.8
20260506032017 53 159 1.0 2.0 0.00 0.34 0.29 80 1005.8
20260506031045 53 233 0.0 1.0 0.00 0.34 0.29 81 1005.8
20260506030035 53 178 1.0 2.0 0.00 0.34 0.29 79 1005.8
20260506025015 53 139 1.0 3.0 0.00 0.34 0.29 78 1005.8
20260506024025 53 0.0 0.0 0.00 0.34 0.29 75 1006.4
20260506023059 53 90 0.0 1.0 0.00 0.34 0.29 75 1006.8
20260506022025 54 0.0 0.0 0.00 0.34 0.29 75 1006.8
20260506021107 54 0.0 0.0 0.00 0.34 0.29 75 1006.8
20260506020028 54 0.0 0.0 0.00 0.34 0.29 76 1006.8
20260506015058 54 0.0 0.0 0.00 0.34 0.29 77 1006.8
20260506013553 54 0.0 0.0 0.00 0.34 0.29 75 1006.8
20260506012537 54 0.0 0.0 0.00 0.34 0.29 76 1006.8
20260506011515 55 0.0 0.0 0.00 0.34 0.29 76 1006.8
20260506010611 54 33 0.0 0.0 0.00 0.34 0.29 76 1006.8
20260506005515 55 135 0.0 1.0 0.00 0.34 0.29 78 1006.8
20260506004527 54 0.0 0.0 0.00 0.34 0.29 81 1006.8
20260506003526 54 225 0.0 1.0 0.00 0.34 0.29 82 1006.8
20260506002534 55 0.0 0.0 0.00 0.34 0.29 79 1006.2
20260506001545 55 0.0 0.0 0.00 0.34 0.29 80 1005.8
20260506000027 54 45 0.0 0.0 0.00 0.34 0.29 82 1005.8
20260505235033 54 215 2.0 3.0 0.00 0.34 0.29 84 1005.8
20260505234017 55 45 0.0 2.0 0.17 0.34 0.29 73 1006.4
20260505233027 55 68 0.0 2.0 0.17 0.34 0.29 73 1006.8
20260505232029 55 53 2.0 2.0 0.12 0.28 0.24 73 1007.8
20260505231025 55 56 0.0 1.0 0.12 0.28 0.24 74 1008.5
20260505230026 55 22 0.0 0.0 0.04 0.21 0.16 74 1008.9
20260505225023 55 0.0 0.0 0.00 0.17 0.12 77 1008.9
20260505224051 55 145 2.0 3.0 0.13 0.13 0.08 80 1008.9
20260505223024 55 235 2.0 5.0 0.13 0.13 0.08 81 1008.9
20260505221526 56 257 2.0 2.0 0.13 0.13 0.08 81 1008.9
20260505220538 57 289 2.0 3.0 0.13 0.13 0.08 77 1008.9
20260505215530 58 262 3.0 5.0 0.04 0.04 0.04 83 1008.2
20260505214620 58 216 4.0 7.0 0.00 0.00 0.00 81 1007.8
20260505213559 59 172 3.0 5.0 0.00 0.00 0.00 73 1006.8
20260505212539 60 358 3.0 5.0 0.00 0.00 0.00 65 1006.8
20260505211523 60 40 3.0 7.0 0.00 0.00 0.00 65 1006.8
20260505210554 60 28 4.0 5.0 0.00 0.00 0.00 63 1006.8
20260505205531 60 30 3.0 5.0 0.00 0.00 0.00 62 1006.8
20260505204544 60 29 2.0 3.0 0.00 0.00 0.00 61 1006.8
20260505203015 61 31 3.0 3.0 0.00 0.00 0.00 61 1006.8
20260505202016 61 33 4.0 5.0 0.00 0.00 0.00 61 1006.8
20260505201016 61 21 3.0 5.0 0.00 0.00 0.00 59 1006.8
20260505200056 61 356 3.0 5.0 0.00 0.00 0.00 59 1006.8
20260505195040 62 19 3.0 6.0 0.00 0.00 0.00 57 1006.8
20260505194024 62 41 2.0 4.0 0.00 0.00 0.00 57 1006.8
20260505193053 62 53 4.0 5.0 0.00 0.00 0.00 58 1006.8
20260505192108 62 32 3.0 5.0 0.00 0.00 0.00 55 1006.8
20260505190549 63 29 3.0 4.0 0.00 0.00 0.00 54 1006.8
20260505185536 63 70 3.0 6.0 0.00 0.00 0.00 53 1006.8
20260505184529 63 47 1.0 4.0 0.00 0.00 0.00 53 1006.8
20260505183547 64 14 2.0 4.0 0.00 0.00 0.00 52 1006.8
20260505182547 64 89 1.0 2.0 0.00 0.00 0.00 50 1006.8
20260505181602 64 58 2.0 4.0 0.00 0.00 0.00 1006.8
20260505180523 65 25 2.0 5.0 0.00 0.00 0.00 48 1007.8
20260505175517 65 31 2.0 3.0 0.00 0.00 0.00 48 1007.8
20260505174610 66 24 3.0 5.0 0.00 0.00 0.00 47 1007.8
20260505173520 66 14 2.0 5.0 0.00 0.00 0.00 47 1007.8
20260505172554 66 51 1.0 2.0 0.00 0.00 0.00 47 1007.8
20260505171536 67 19 2.0 3.0 0.00 0.00 0.00 46 1007.8
20260505170524 67 24 3.0 7.0 0.00 0.00 0.00 46 1007.8
20260505165543 68 9 0.0 1.0 0.00 0.00 0.00 46 1007.8
20260505164527 68 29 2.0 3.0 0.00 0.00 0.00 45 1007.8
20260505163519 68 5 4.0 5.0 0.00 0.00 0.00 45 1007.8
20260505162548 68 67 2.0 3.0 0.00 0.00 0.00 44 1007.8
20260505161016 69 27 4.0 8.0 0.00 0.00 0.00 44 1007.8
20260505160112 69 48 5.0 7.0 0.00 0.00 0.00 44 1007.8
20260505153016 69 43 3.0 5.0 0.00 0.00 0.00 44 1007.8
20260505152054 69 34 2.0 3.0 0.00 0.00 0.00 44 1007.8
20260505151028 69 42 4.0 6.0 0.00 0.00 0.00 43 1008.2
20260505140540 73 347 2.0 4.0 0.00 0.00 0.00 41 1008.9
20260505124602 75 41 4.0 6.0 0.00 0.00 0.00 38 1008.9
20260505123550 76 44 2.0 3.0 0.00 0.00 0.00 38 1008.9
20260505122534 77 339 2.0 3.0 0.00 0.00 0.00 37 1008.9
20260505121540 78 28 4.0 5.0 0.00 0.00 0.00 37 1008.9
20260505120556 78 52 4.0 5.0 0.00 0.00 0.00 37 1008.9
20260505115725 78 19 4.0 5.0 0.00 0.00 0.00 37 1008.9
20260505114531 77 347 2.0 3.0 0.00 0.00 0.00 37 1008.9
20260505113538 77 47 4.0 5.0 0.00 0.00 0.00 38 1008.9
20260505112522 77 45 4.0 6.0 0.00 0.00 0.00 39 1008.9
20260505111559 78 345 4.0 7.0 0.00 0.00 0.00 38 1008.9
20260505110533 77 341 2.0 3.0 0.00 0.00 0.00 39 1009.9
20260505101546 75 263 2.0 3.0 0.00 0.00 0.00 41 1009.9
20260505100546 75 288 3.0 6.0 0.00 0.00 0.00 41 1009.9
20260505095546 72 93 1.0 1.0 0.00 0.00 0.00 43 1009.9
20260505094524 73 241 4.0 6.0 0.00 0.00 0.00 42 1009.9
20260505093523 72 276 3.0 4.0 0.00 0.00 0.00 43 1009.9
20260505092554 71 327 2.0 3.0 0.00 0.00 0.00 45 1009.9
20260505091518 70 258 3.0 4.0 0.00 0.00 0.00 45 1009.9
20260505090533 72 280 2.0 3.0 0.00 0.00 0.00 46 1009.9
20260505085543 70 206 3.0 4.0 0.00 0.00 0.00 46 1009.9
20260505084526 71 237 2.0 3.0 0.00 0.00 0.00 46 1009.9
20260505083546 71 252 3.0 5.0 0.00 0.00 0.00 47 1009.9
20260505082554 70 298 2.0 2.0 0.00 0.00 0.00 47 1009.9
20260505081518 70 252 3.0 4.0 0.00 0.00 0.00 48 1009.9
20260505080548 70 261 2.0 3.0 0.00 0.00 0.00 51 1009.9
20260505075548 68 283 3.0 3.0 0.00 0.00 0.00 53 1009.9
20260505074516 67 316 2.0 3.0 0.00 0.00 0.00 56 1009.9
20260505073044 61 235 2.0 4.0 0.00 0.00 0.00 64 1010.9
20260505072030 62 249 2.0 3.0 0.00 0.00 0.00 64 1010.9
20260505071028 62 244 3.0 4.0 0.00 0.00 0.00 65 1010.3
20260505070123 61 225 2.0 3.0 0.00 0.00 0.00 66 1009.9